| time (UTC) | temp F | wind direction | speed MPH | gust MPH | rain 1hr in | rain 24hr in | rain mn in | humidity % | barometer mb |
| 20260831020919 | 78 | 245 | 0.0 | 0.0 | 0.00 | 0.00 | 0.00 | 75 | 1017.7 |
| 20260831020418 | 78 | 245 | 0.0 | 0.0 | 0.00 | 0.00 | 0.00 | 75 | 1017.6 |
| 20260831015918 | 78 | 245 | 0.0 | 0.0 | 0.00 | 0.00 | 0.00 | 75 | 1017.6 |
| 20260831015416 | 79 | 245 | 0.0 | 0.0 | 0.00 | 0.00 | 0.00 | 74 | 1017.7 |
| 20260831014915 | 79 | 245 | 0.0 | 0.0 | 0.00 | 0.00 | 0.00 | 74 | 1017.6 |
| 20260831014416 | 79 | 245 | 0.0 | 0.0 | 0.00 | 0.00 | 0.00 | 74 | 1017.6 |
| 20260831013910 | 80 | 245 | 0.0 | 1.0 | 0.00 | 0.00 | 0.00 | 74 | 1017.6 |
| 20260831013409 | 80 | 245 | 0.0 | 1.0 | 0.00 | 0.00 | 0.00 | 74 | 1017.4 |
| 20260831012908 | 80 | 245 | 0.0 | 1.0 | 0.00 | 0.00 | 0.00 | 74 | 1017.4 |
| 20260831012407 | 80 | 245 | 0.0 | 1.0 | 0.00 | 0.00 | 0.00 | 74 | 1017.3 |
| 20260831011908 | 79 | 245 | 0.0 | 0.0 | 0.00 | 0.00 | 0.00 | 75 | 1017.2 |
| 20260831011642 | 80 | 245 | 0.0 | 0.0 | 0.00 | 0.00 | 0.00 | 75 | 1017.1 |
| 20260831010907 | 80 | 245 | 0.0 | 0.0 | 0.00 | 0.00 | 0.00 | 74 | 1017.1 |
| 20260831010404 | 81 | 245 | 0.0 | 0.0 | 0.00 | 0.00 | 0.00 | 73 | 1017.0 |
| 20260831005903 | 81 | 245 | 0.0 | 0.0 | 0.00 | 0.00 | 0.00 | 72 | 1017.0 |
| 20260831005404 | 82 | 245 | 0.0 | 1.0 | 0.00 | 0.00 | 0.00 | 72 | 1017.0 |
| 20260831005132 | 82 | 245 | 0.0 | 1.0 | 0.00 | 0.00 | 0.00 | 72 | 1017.0 |
| 20260831004118 | 83 | 245 | 0.0 | 0.0 | 0.00 | 0.00 | 0.00 | 71 | 1017.0 |
| 20260831003355 | 83 | 245 | 0.0 | 0.0 | 0.00 | 0.00 | 0.00 | 71 | 1016.9 |
| 20260831002854 | 83 | 245 | 0.0 | 0.0 | 0.00 | 0.00 | 0.00 | 70 | 1016.8 |
| 20260831002621 | 84 | 245 | 0.0 | 0.0 | 0.00 | 0.00 | 0.00 | 70 | 1016.8 |
| 20260831001905 | 84 | 245 | 0.0 | 0.0 | 0.00 | 0.00 | 0.00 | 69 | 1016.8 |
| 20260831001350 | 85 | 245 | 0.0 | 0.0 | 0.00 | 0.00 | 0.00 | 68 | 1016.8 |
| 20260831000844 | 85 | 245 | 0.0 | 0.0 | 0.00 | 0.00 | 0.00 | 68 | 1016.8 |
| 20260831000344 | 86 | 245 | 0.0 | 1.0 | 0.00 | 0.00 | 0.00 | 67 | 1016.8 |
| 20260830235846 | 86 | 245 | 0.0 | 1.0 | 0.00 | 0.00 | 0.00 | 65 | 1016.8 |
| 20260830235341 | 86 | 245 | 0.0 | 0.0 | 0.00 | 0.00 | 0.00 | 64 | 1016.9 |
| 20260830234842 | 87 | 245 | 0.0 | 0.0 | 0.00 | 0.00 | 0.00 | 62 | 1016.8 |
| 20260830234339 | 87 | 245 | 0.0 | 0.0 | 0.00 | 0.00 | 0.00 | 61 | 1016.8 |
| 20260830233835 | 87 | 245 | 0.0 | 0.0 | 0.00 | 0.00 | 0.00 | 61 | 1016.8 |
| 20260830233335 | 87 | 245 | 0.0 | 0.0 | 0.00 | 0.00 | 0.00 | 59 | 1016.8 |
| 20260830232329 | 89 | 245 | 0.0 | 1.0 | 0.00 | 0.00 | 0.00 | 56 | 1016.7 |
| 20260830231829 | 89 | 245 | 0.0 | 1.0 | 0.00 | 0.00 | 0.00 | 54 | 1016.7 |
| 20260830231327 | 90 | 245 | 0.0 | 1.0 | 0.00 | 0.00 | 0.00 | 53 | 1016.7 |
| 20260830230822 | 90 | 245 | 0.0 | 1.0 | 0.00 | 0.00 | 0.00 | 51 | 1016.7 |
| 20260830230321 | 91 | 245 | 0.0 | 1.0 | 0.00 | 0.00 | 0.00 | 51 | 1016.7 |
| 20260830225820 | 91 | 245 | 0.0 | 1.0 | 0.00 | 0.00 | 0.00 | 50 | 1016.7 |
| 20260830225319 | 91 | 245 | 0.0 | 1.0 | 0.00 | 0.00 | 0.00 | 49 | 1016.6 |
| 20260830224816 | 91 | 245 | 0.0 | 1.0 | 0.00 | 0.00 | 0.00 | 47 | 1016.8 |
| 20260830224312 | 91 | 250 | 0.0 | 2.0 | 0.00 | 0.00 | 0.00 | 48 | 1016.8 |
| 20260830223811 | 92 | 250 | 0.0 | 2.0 | 0.00 | 0.00 | 0.00 | 47 | 1016.7 |
| 20260830223311 | 91 | 319 | 0.0 | 2.0 | 0.00 | 0.00 | 0.00 | 46 | 1016.7 |
| 20260830222810 | 92 | 312 | 0.0 | 3.0 | 0.00 | 0.00 | 0.00 | 46 | 1016.7 |
| 20260830222309 | 92 | 315 | 0.0 | 3.0 | 0.00 | 0.00 | 0.00 | 45 | 1016.7 |
| 20260830221813 | 92 | 320 | 0.0 | 2.0 | 0.00 | 0.00 | 0.00 | 44 | 1016.7 |
| 20260830221308 | 92 | 321 | 0.0 | 2.0 | 0.00 | 0.00 | 0.00 | 45 | 1016.8 |
| 20260830221033 | 92 | 321 | 0.0 | 2.0 | 0.00 | 0.00 | 0.00 | 43 | 1016.8 |
| 20260830220526 | 92 | 321 | 0.0 | 2.0 | 0.00 | 0.00 | 0.00 | 45 | 1016.9 |
| 20260830215808 | 92 | 321 | 0.0 | 2.0 | 0.00 | 0.00 | 0.00 | 45 | 1017.0 |
| 20260830215307 | 93 | 338 | 0.0 | 2.0 | 0.00 | 0.00 | 0.00 | 43 | 1016.9 |
| 20260830214808 | 93 | 313 | 1.0 | 2.0 | 0.00 | 0.00 | 0.00 | 44 | 1017.0 |
| 20260830214302 | 93 | 313 | 1.0 | 3.0 | 0.00 | 0.00 | 0.00 | 41 | 1017.0 |
| 20260830213800 | 93 | 312 | 0.0 | 3.0 | 0.00 | 0.00 | 0.00 | 43 | 1017.1 |
| 20260830213302 | 93 | 312 | 1.0 | 3.0 | 0.00 | 0.00 | 0.00 | 42 | 1017.2 |
| 20260830212756 | 94 | 310 | 1.0 | 4.0 | 0.00 | 0.00 | 0.00 | 40 | 1017.3 |
| 20260830212258 | 95 | 308 | 1.0 | 6.0 | 0.00 | 0.00 | 0.00 | 40 | 1017.3 |
| 20260830211510 | 94 | 257 | 1.0 | 4.0 | 0.00 | 0.00 | 0.00 | 41 | 1017.3 |
| 20260830210751 | 95 | 316 | 2.0 | 5.0 | 0.00 | 0.00 | 0.00 | 39 | 1017.3 |
| 20260830210252 | 95 | 310 | 1.0 | 5.0 | 0.00 | 0.00 | 0.00 | 40 | 1017.3 |
| 20260830205750 | 94 | 308 | 0.0 | 3.0 | 0.00 | 0.00 | 0.00 | 43 | 1017.3 |
| 20260830205251 | 95 | 300 | 1.0 | 5.0 | 0.00 | 0.00 | 0.00 | 43 | 1017.4 |
| 20260830204747 | 95 | 300 | 1.0 | 5.0 | 0.00 | 0.00 | 0.00 | 39 | 1017.6 |
| 20260830204251 | 95 | 315 | 1.0 | 4.0 | 0.00 | 0.00 | 0.00 | 40 | 1017.6 |
| 20260830203742 | 95 | 302 | 1.0 | 4.0 | 0.00 | 0.00 | 0.00 | 41 | 1017.7 |
| 20260830203243 | 95 | 327 | 1.0 | 3.0 | 0.00 | 0.00 | 0.00 | 42 | 1017.7 |
| 20260830202745 | 94 | 240 | 1.0 | 2.0 | 0.00 | 0.00 | 0.00 | 44 | 1017.6 |
| 20260830202236 | 93 | 258 | 1.0 | 6.0 | 0.00 | 0.00 | 0.00 | 42 | 1017.6 |
| 20260830201457 | 94 | 357 | 1.0 | 7.0 | 0.00 | 0.00 | 0.00 | 41 | 1017.9 |
| 20260830200954 | 94 | 305 | 1.0 | 6.0 | 0.00 | 0.00 | 0.00 | 42 | 1017.9 |
| 20260830200228 | 94 | 304 | 1.0 | 4.0 | 0.00 | 0.00 | 0.00 | 44 | 1017.9 |
| 20260830195730 | 93 | 335 | 1.0 | 3.0 | 0.00 | 0.00 | 0.00 | 42 | 1017.9 |
| 20260830195225 | 93 | 343 | 0.0 | 4.0 | 0.00 | 0.00 | 0.00 | 45 | 1017.9 |
| 20260830194728 | 93 | 351 | 1.0 | 4.0 | 0.00 | 0.00 | 0.00 | 46 | 1018.0 |
| 20260830194223 | 94 | 311 | 1.0 | 4.0 | 0.00 | 0.00 | 0.00 | 44 | 1018.0 |
| 20260830193722 | 94 | 304 | 1.0 | 6.0 | 0.00 | 0.00 | 0.00 | 45 | 1018.1 |
| 20260830193227 | 93 | 292 | 1.0 | 6.0 | 0.00 | 0.00 | 0.00 | 43 | 1018.1 |
| 20260830192216 | 94 | 297 | 2.0 | 5.0 | 0.00 | 0.00 | 0.00 | 46 | 1018.2 |
| 20260830191724 | 94 | 248 | 2.0 | 8.0 | 0.00 | 0.00 | 0.00 | 45 | 1018.3 |
| 20260830191216 | 94 | 312 | 2.0 | 8.0 | 0.00 | 0.00 | 0.00 | 44 | 1018.5 |
| 20260830190942 | 94 | 348 | 2.0 | 8.0 | 0.00 | 0.00 | 0.00 | 44 | 1018.6 |
| 20260830190216 | 94 | 281 | 2.0 | 8.0 | 0.00 | 0.00 | 0.00 | 41 | 1018.6 |
| 20260830185708 | 93 | 320 | 2.0 | 7.0 | 0.00 | 0.00 | 0.00 | 48 | 1018.6 |
| 20260830185207 | 92 | 263 | 2.0 | 7.0 | 0.00 | 0.00 | 0.00 | 46 | 1018.7 |
| 20260830184710 | 93 | 265 | 1.0 | 2.0 | 0.00 | 0.00 | 0.00 | 49 | 1018.8 |
| 20260830184201 | 92 | 277 | 1.0 | 2.0 | 0.00 | 0.00 | 0.00 | 49 | 1018.9 |
| 20260830183700 | 91 | 275 | 1.0 | 3.0 | 0.00 | 0.00 | 0.00 | 50 | 1019.0 |
| 20260830183203 | 91 | 288 | 1.0 | 6.0 | 0.00 | 0.00 | 0.00 | 48 | 1019.1 |
| 20260830182700 | 93 | 318 | 1.0 | 6.0 | 0.00 | 0.00 | 0.00 | 47 | 1019.1 |
| 20260830182415 | 92 | 206 | 1.0 | 6.0 | 0.00 | 0.00 | 0.00 | 50 | 1019.1 |
| 20260830181659 | 92 | 302 | 1.0 | 6.0 | 0.00 | 0.00 | 0.00 | 48 | 1019.2 |
| 20260830181152 | 91 | 342 | 1.0 | 3.0 | 0.00 | 0.00 | 0.00 | 49 | 1019.2 |
| 20260830180705 | 91 | 217 | 1.0 | 3.0 | 0.00 | 0.00 | 0.00 | 50 | 1019.3 |
| 20260830180151 | 91 | 283 | 1.0 | 3.0 | 0.00 | 0.00 | 0.00 | 51 | 1019.3 |
| 20260830175647 | 91 | 285 | 1.0 | 3.0 | 0.00 | 0.00 | 0.00 | 51 | 1019.3 |
| 20260830175146 | 91 | 211 | 1.0 | 3.0 | 0.00 | 0.00 | 0.00 | 50 | 1019.4 |
| 20260830174648 | 91 | 304 | 1.0 | 3.0 | 0.00 | 0.00 | 0.00 | 53 | 1019.5 |
| 20260830174141 | 91 | 318 | 1.0 | 7.0 | 0.00 | 0.00 | 0.00 | 51 | 1019.6 |
| 20260830173641 | 91 | 321 | 1.0 | 7.0 | 0.00 | 0.00 | 0.00 | 52 | 1019.5 |
| 20260830173141 | 90 | 282 | 0.0 | 3.0 | 0.00 | 0.00 | 0.00 | 52 | 1019.6 |
| 20260830172636 | 89 | 282 | 0.0 | 3.0 | 0.00 | 0.00 | 0.00 | 53 | 1019.6 |
| 20260830172150 | 89 | 328 | 0.0 | 3.0 | 0.00 | 0.00 | 0.00 | 54 | 1019.7 |
| 20260830171637 | 90 | 328 | 1.0 | 4.0 | 0.00 | 0.00 | 0.00 | 51 | 1019.7 |
| 20260830171355 | 91 | 22 | 1.0 | 4.0 | 0.00 | 0.00 | 0.00 | 53 | 1019.8 |
| 20260830170631 | 91 | 285 | 1.0 | 3.0 | 0.00 | 0.00 | 0.00 | 51 | 1019.8 |
| 20260830170131 | 90 | 271 | 0.0 | 2.0 | 0.00 | 0.00 | 0.00 | 53 | 1019.8 |
| 20260830165849 | 89 | 205 | 0.0 | 3.0 | 0.00 | 0.00 | 0.00 | 55 | 1019.9 |
| 20260830165126 | 89 | 279 | 1.0 | 3.0 | 0.00 | 0.00 | 0.00 | 54 | 1019.9 |
| 20260830164627 | 89 | 279 | 1.0 | 3.0 | 0.00 | 0.00 | 0.00 | 56 | 1020.0 |
| 20260830164126 | 89 | 285 | 1.0 | 6.0 | 0.00 | 0.00 | 0.00 | 55 | 1020.0 |
| 20260830163626 | 89 | 316 | 2.0 | 6.0 | 0.00 | 0.00 | 0.00 | 54 | 1020.1 |
| 20260830163126 | 89 | 302 | 2.0 | 6.0 | 0.00 | 0.00 | 0.00 | 54 | 1020.1 |
| 20260830162858 | 89 | 314 | 1.0 | 4.0 | 0.00 | 0.00 | 0.00 | 55 | 1020.1 |
| 20260830162126 | 88 | 306 | 1.0 | 4.0 | 0.00 | 0.00 | 0.00 | 55 | 1020.1 |
| 20260830161625 | 88 | 246 | 1.0 | 3.0 | 0.00 | 0.00 | 0.00 | 57 | 1020.2 |
| 20260830161128 | 88 | 301 | 1.0 | 3.0 | 0.00 | 0.00 | 0.00 | 57 | 1020.2 |
| 20260830160621 | 88 | 288 | 1.0 | 3.0 | 0.00 | 0.00 | 0.00 | 58 | 1020.2 |
| 20260830160122 | 88 | 294 | 1.0 | 6.0 | 0.00 | 0.00 | 0.00 | 57 | 1020.2 |
| 20260830155623 | 87 | 290 | 1.0 | 6.0 | 0.00 | 0.00 | 0.00 | 57 | 1020.2 |
| 20260830155118 | 87 | 308 | 1.0 | 3.0 | 0.00 | 0.00 | 0.00 | 59 | 1020.2 |
| 20260830154617 | 86 | 306 | 0.0 | 3.0 | 0.00 | 0.00 | 0.00 | 59 | 1020.2 |
| 20260830154116 | 86 | 344 | 0.0 | 3.0 | 0.00 | 0.00 | 0.00 | 60 | 1020.2 |
| 20260830153614 | 86 | 220 | 0.0 | 3.0 | 0.00 | 0.00 | 0.00 | 61 | 1020.2 |
| 20260830153118 | 85 | 217 | 0.0 | 3.0 | 0.00 | 0.00 | 0.00 | 63 | 1020.2 |
| 20260830152609 | 84 | 217 | 1.0 | 6.0 | 0.00 | 0.00 | 0.00 | 63 | 1020.2 |
| 20260830152340 | 83 | 217 | 2.0 | 6.0 | 0.00 | 0.00 | 0.00 | 66 | 1020.1 |
| 20260830151610 | 81 | 267 | 2.0 | 5.0 | 0.00 | 0.00 | 0.00 | 71 | 1020.2 |
| 20260830151114 | 78 | 296 | 1.0 | 4.0 | 0.00 | 0.00 | 0.00 | 78 | 1020.2 |
| 20260830150600 | 78 | 194 | 1.0 | 3.0 | 0.00 | 0.00 | 0.00 | 81 | 1020.2 |
| 20260830150108 | 77 | 268 | 1.0 | 3.0 | 0.00 | 0.00 | 0.00 | 83 | 1020.1 |
| 20260830145600 | 76 | 318 | 0.0 | 3.0 | 0.00 | 0.00 | 0.00 | 85 | 1020.1 |
| 20260830145059 | 76 | 338 | 0.0 | 1.0 | 0.00 | 0.00 | 0.00 | 87 | 1020.0 |
| 20260830144558 | 75 | 338 | 0.0 | 2.0 | 0.00 | 0.00 | 0.00 | 88 | 1020.0 |
| 20260830144324 | 74 | 338 | 1.0 | 3.0 | 0.00 | 0.00 | 0.00 | 89 | 1019.8 |
| 20260830143555 | 74 | 344 | 0.0 | 3.0 | 0.00 | 0.00 | 0.00 | 90 | 1019.8 |
| 20260830143052 | 73 | 211 | 0.0 | 1.0 | 0.00 | 0.00 | 0.00 | 90 | 1019.8 |
| 20260830142813 | 73 | 211 | 0.0 | 1.0 | 0.00 | 0.00 | 0.00 | 90 | 1019.8 |
| 20260830142104 | 73 | 211 | 0.0 | 1.0 | 0.00 | 0.00 | 0.00 | 90 | 1019.7 |
| 20260830141808 | 72 | 211 | 0.0 | 2.0 | 0.00 | 0.00 | 0.00 | 91 | 1019.7 |
| 20260830141046 | 72 | 209 | 0.0 | 2.0 | 0.00 | 0.00 | 0.00 | 90 | 1019.8 |
| 20260830140548 | 72 | 207 | 0.0 | 0.0 | 0.00 | 0.00 | 0.00 | 91 | 1019.8 |
| 20260830140057 | 71 | 207 | 0.0 | 0.0 | 0.00 | 0.00 | 0.00 | 90 | 1019.7 |
| 20260830135809 | 71 | 207 | 0.0 | 0.0 | 0.00 | 0.00 | 0.00 | 91 | 1019.7 |
| 20260830135042 | 71 | 207 | 0.0 | 0.0 | 0.00 | 0.00 | 0.00 | 90 | 1019.7 |
| 20260830134804 | 70 | 207 | 0.0 | 0.0 | 0.00 | 0.00 | 0.00 | 90 | 1019.7 |
| 20260830134044 | 70 | 207 | 0.0 | 0.0 | 0.00 | 0.00 | 0.00 | 90 | 1019.7 |
| 20260830133800 | 70 | 207 | 0.0 | 0.0 | 0.00 | 0.00 | 0.00 | 90 | 1019.6 |
| 20260830133052 | 69 | 207 | 0.0 | 0.0 | 0.00 | 0.00 | 0.00 | 90 | 1019.6 |
| 20260830132540 | 69 | 207 | 0.0 | 0.0 | 0.00 | 0.00 | 0.00 | 90 | 1019.5 |
| 20260830132038 | 69 | 207 | 0.0 | 0.0 | 0.00 | 0.00 | 0.00 | 90 | 1019.6 |
| 20260830131538 | 69 | 207 | 0.0 | 0.0 | 0.00 | 0.00 | 0.00 | 90 | 1019.6 |
| 20260830131037 | 68 | 207 | 0.0 | 0.0 | 0.00 | 0.00 | 0.00 | 90 | 1019.5 |
| 20260830130536 | 68 | 207 | 0.0 | 0.0 | 0.00 | 0.00 | 0.00 | 90 | 1019.5 |
| 20260830130035 | 68 | 207 | 0.0 | 0.0 | 0.00 | 0.00 | 0.00 | 90 | 1019.4 |
| 20260830125250 | 67 | 207 | 0.0 | 0.0 | 0.00 | 0.00 | 0.00 | 90 | 1019.5 |
| 20260830124534 | 67 | 207 | 0.0 | 0.0 | 0.00 | 0.00 | 0.00 | 90 | 1019.5 |
| 20260830124031 | 67 | 207 | 0.0 | 0.0 | 0.00 | 0.00 | 0.00 | 90 | 1019.5 |
| 20260830123528 | 66 | 207 | 0.0 | 0.0 | 0.00 | 0.00 | 0.00 | 90 | 1019.4 |
| 20260830123028 | 66 | 207 | 0.0 | 0.0 | 0.00 | 0.00 | 0.00 | 89 | 1019.4 |
| 20260830122525 | 66 | 207 | 0.0 | 0.0 | 0.00 | 0.00 | 0.00 | 89 | 1019.4 |
| 20260830122237 | 66 | 207 | 0.0 | 0.0 | 0.00 | 0.00 | 0.00 | 89 | 1019.4 |
| 20260830121522 | 66 | 207 | 0.0 | 0.0 | 0.00 | 0.00 | 0.00 | 89 | 1019.3 |
| 20260830121240 | 66 | 207 | 0.0 | 0.0 | 0.00 | 0.00 | 0.00 | 89 | 1019.3 |
| 20260830120755 | 65 | 207 | 0.0 | 0.0 | 0.00 | 0.00 | 0.00 | 89 | 1019.2 |
| 20260830120020 | 65 | 207 | 0.0 | 0.0 | 0.00 | 0.00 | 0.00 | 89 | 1019.1 |
| 20260830115532 | 65 | 207 | 0.0 | 0.0 | 0.00 | 0.00 | 0.00 | 89 | 1019.2 |
| 20260830115019 | 65 | 207 | 0.0 | 0.0 | 0.00 | 0.00 | 0.00 | 89 | 1019.1 |
| 20260830114516 | 65 | 207 | 0.0 | 0.0 | 0.00 | 0.00 | 0.00 | 89 | 1019.2 |
| 20260830114013 | 65 | 207 | 0.0 | 0.0 | 0.00 | 0.00 | 0.00 | 89 | 1019.1 |
| 20260830113515 | 65 | 207 | 0.0 | 0.0 | 0.00 | 0.00 | 0.00 | 89 | 1019.0 |
| 20260830113012 | 66 | 207 | 0.0 | 0.0 | 0.00 | 0.00 | 0.00 | 89 | 1019.0 |
| 20260830112743 | 66 | 207 | 0.0 | 0.0 | 0.00 | 0.00 | 0.00 | 89 | 1019.2 |
| 20260830112014 | 66 | 207 | 0.0 | 0.0 | 0.00 | 0.00 | 0.00 | 89 | 1019.1 |
| 20260830111506 | 66 | 207 | 0.0 | 0.0 | 0.00 | 0.00 | 0.00 | 89 | 1019.0 |
| 20260830111019 | 66 | 207 | 0.0 | 0.0 | 0.00 | 0.00 | 0.00 | 89 | 1019.0 |
| 20260830110511 | 66 | 207 | 0.0 | 0.0 | 0.00 | 0.00 | 0.00 | 89 | 1018.9 |
| 20260830110006 | 66 | 207 | 0.0 | 0.0 | 0.00 | 0.00 | 0.00 | 89 | 1018.8 |
| 20260830105505 | 66 | 207 | 0.0 | 0.0 | 0.00 | 0.00 | 0.00 | 89 | 1018.8 |
| 20260830105003 | 66 | 207 | 0.0 | 0.0 | 0.00 | 0.00 | 0.00 | 89 | 1018.8 |
| 20260830104718 | 65 | 207 | 0.0 | 0.0 | 0.00 | 0.00 | 0.00 | 89 | 1018.8 |
| 20260830103459 | 66 | 207 | 0.0 | 0.0 | 0.00 | 0.00 | 0.00 | 89 | 1018.8 |
| 20260830102958 | 66 | 207 | 0.0 | 0.0 | 0.00 | 0.00 | 0.00 | 89 | 1018.7 |
| 20260830102458 | 66 | 207 | 0.0 | 0.0 | 0.00 | 0.00 | 0.00 | 89 | 1018.6 |
| 20260830101955 | 66 | 207 | 0.0 | 0.0 | 0.00 | 0.00 | 0.00 | 89 | 1018.6 |
| 20260830101451 | 66 | 207 | 0.0 | 1.0 | 0.00 | 0.00 | 0.00 | 89 | 1018.7 |
| 20260830100952 | 66 | 207 | 0.0 | 1.0 | 0.00 | 0.00 | 0.00 | 89 | 1018.6 |
| 20260830100504 | 66 | 207 | 0.0 | 1.0 | 0.00 | 0.00 | 0.00 | 89 | 1018.7 |
| 20260830095950 | 66 | 207 | 0.0 | 1.0 | 0.00 | 0.00 | 0.00 | 89 | 1018.7 |
| 20260830095451 | 66 | 207 | 0.0 | 1.0 | 0.00 | 0.00 | 0.00 | 89 | 1018.6 |
| 20260830094947 | 66 | 207 | 0.0 | 1.0 | 0.00 | 0.00 | 0.00 | 89 | 1018.7 |
| 20260830094447 | 66 | 207 | 0.0 | 1.0 | 0.00 | 0.00 | 0.00 | 89 | 1018.6 |
| 20260830094215 | 66 | 207 | 0.0 | 1.0 | 0.00 | 0.00 | 0.00 | 89 | 1018.7 |
| 20260830093446 | 66 | 207 | 0.0 | 0.0 | 0.00 | 0.00 | 0.00 | 89 | 1018.7 |
| 20260830092948 | 66 | 207 | 0.0 | 0.0 | 0.00 | 0.00 | 0.00 | 89 | 1018.7 |
| 20260830092444 | 66 | 207 | 0.0 | 0.0 | 0.00 | 0.00 | 0.00 | 88 | 1018.8 |
| 20260830091938 | 66 | 207 | 0.0 | 0.0 | 0.00 | 0.00 | 0.00 | 89 | 1018.7 |
| 20260830091437 | 66 | 207 | 0.0 | 0.0 | 0.00 | 0.00 | 0.00 | 89 | 1018.8 |
| 20260830090938 | 66 | 207 | 0.0 | 0.0 | 0.00 | 0.00 | 0.00 | 88 | 1018.8 |
| 20260830090653 | 66 | 207 | 0.0 | 0.0 | 0.00 | 0.00 | 0.00 | 88 | 1018.8 |
| 20260830085931 | 66 | 207 | 0.0 | 0.0 | 0.00 | 0.00 | 0.00 | 88 | 1018.9 |
| 20260830085430 | 66 | 207 | 0.0 | 0.0 | 0.00 | 0.00 | 0.00 | 88 | 1018.9 |
| 20260830084928 | 67 | 207 | 0.0 | 0.0 | 0.00 | 0.00 | 0.00 | 88 | 1018.9 |
| 20260830084426 | 66 | 207 | 0.0 | 0.0 | 0.00 | 0.00 | 0.00 | 88 | 1018.9 |
| 20260830083926 | 67 | 207 | 0.0 | 0.0 | 0.00 | 0.00 | 0.00 | 88 | 1018.8 |
| 20260830083418 | 67 | 207 | 0.0 | 0.0 | 0.00 | 0.00 | 0.00 | 88 | 1018.9 |
| 20260830082919 | 66 | 207 | 0.0 | 0.0 | 0.00 | 0.00 | 0.00 | 88 | 1018.9 |
| 20260830082644 | 66 | 207 | 0.0 | 0.0 | 0.00 | 0.00 | 0.00 | 88 | 1018.9 |
| 20260830081914 | 66 | 207 | 0.0 | 0.0 | 0.00 | 0.00 | 0.00 | 88 | 1018.9 |
| 20260830081412 | 66 | 207 | 0.0 | 0.0 | 0.00 | 0.00 | 0.00 | 88 | 1018.9 |
| 20260830080913 | 66 | 207 | 0.0 | 0.0 | 0.00 | 0.00 | 0.00 | 88 | 1018.9 |
| 20260830080630 | 66 | 207 | 0.0 | 0.0 | 0.00 | 0.00 | 0.00 | 88 | 1018.9 |
| 20260830075636 | 67 | 207 | 0.0 | 0.0 | 0.00 | 0.00 | 0.00 | 87 | 1018.8 |
| 20260830074910 | 67 | 207 | 0.0 | 0.0 | 0.00 | 0.00 | 0.00 | 87 | 1018.8 |
| 20260830074410 | 67 | 207 | 0.0 | 0.0 | 0.00 | 0.00 | 0.00 | 87 | 1018.8 |
| 20260830073913 | 67 | 207 | 0.0 | 0.0 | 0.00 | 0.00 | 0.00 | 87 | 1018.8 |
| 20260830073636 | 67 | 207 | 0.0 | 0.0 | 0.00 | 0.00 | 0.00 | 88 | 1018.8 |
| 20260830072408 | 67 | 207 | 0.0 | 0.0 | 0.00 | 0.00 | 0.00 | 87 | 1018.9 |
| 20260830071900 | 67 | 207 | 0.0 | 0.0 | 0.00 | 0.00 | 0.00 | 87 | 1019.0 |
| 20260830071401 | 67 | 207 | 0.0 | 0.0 | 0.00 | 0.00 | 0.00 | 87 | 1019.1 |
| 20260830070903 | 67 | 207 | 0.0 | 0.0 | 0.00 | 0.00 | 0.00 | 87 | 1019.1 |
| 20260830070358 | 67 | 207 | 0.0 | 0.0 | 0.00 | 0.00 | 0.00 | 87 | 1019.1 |
| 20260830065856 | 67 | 207 | 0.0 | 0.0 | 0.00 | 0.00 | 0.00 | 87 | 1019.2 |
| 20260830065359 | 67 | 207 | 0.0 | 0.0 | 0.00 | 0.00 | 0.00 | 87 | 1019.1 |
| 20260830064850 | 67 | 207 | 0.0 | 0.0 | 0.00 | 0.00 | 0.00 | 87 | 1019.2 |
| 20260830064349 | 67 | 207 | 0.0 | 0.0 | 0.00 | 0.00 | 0.00 | 87 | 1019.1 |
| 20260830063851 | 67 | 207 | 0.0 | 0.0 | 0.00 | 0.00 | 0.00 | 87 | 1019.1 |
| 20260830063347 | 67 | 207 | 0.0 | 0.0 | 0.00 | 0.00 | 0.00 | 87 | 1019.1 |
| 20260830062845 | 67 | 207 | 0.0 | 1.0 | 0.00 | 0.00 | 0.00 | 87 | 1019.2 |
| 20260830062346 | 67 | 207 | 0.0 | 1.0 | 0.00 | 0.00 | 0.00 | 87 | 1019.2 |
| 20260830061840 | 67 | 207 | 0.0 | 0.0 | 0.00 | 0.00 | 0.00 | 87 | 1019.2 |
| 20260830061606 | 67 | 207 | 0.0 | 0.0 | 0.00 | 0.00 | 0.00 | 86 | 1019.3 |
| 20260830060840 | 67 | 207 | 0.0 | 0.0 | 0.00 | 0.00 | 0.00 | 86 | 1019.3 |
| 20260830060334 | 67 | 207 | 0.0 | 0.0 | 0.00 | 0.00 | 0.00 | 86 | 1019.3 |
| 20260830055833 | 67 | 207 | 0.0 | 0.0 | 0.00 | 0.00 | 0.00 | 86 | 1019.2 |
| 20260830055333 | 67 | 207 | 0.0 | 0.0 | 0.00 | 0.00 | 0.00 | 86 | 1019.3 |
| 20260830054828 | 67 | 207 | 0.0 | 0.0 | 0.00 | 0.00 | 0.00 | 86 | 1019.3 |
| 20260830054325 | 67 | 207 | 0.0 | 0.0 | 0.00 | 0.00 | 0.00 | 86 | 1019.4 |
| 20260830054050 | 67 | 207 | 0.0 | 0.0 | 0.00 | 0.00 | 0.00 | 86 | 1019.3 |
| 20260830053543 | 67 | 207 | 0.0 | 0.0 | 0.00 | 0.00 | 0.00 | 85 | 1019.3 |
| 20260830053051 | 68 | 207 | 0.0 | 0.0 | 0.00 | 0.00 | 0.00 | 85 | 1019.4 |
| 20260830052320 | 68 | 207 | 0.0 | 1.0 | 0.00 | 0.00 | 0.00 | 85 | 1019.4 |
| 20260830052051 | 68 | 207 | 0.0 | 1.0 | 0.00 | 0.00 | 0.00 | 85 | 1019.4 |
| 20260830051549 | 68 | 207 | 0.0 | 0.0 | 0.00 | 0.00 | 0.00 | 86 | 1019.4 |
| 20260830050827 | 68 | 207 | 0.0 | 0.0 | 0.00 | 0.00 | 0.00 | 86 | 1019.4 |
| 20260830050313 | 68 | 207 | 0.0 | 0.0 | 0.00 | 0.00 | 0.00 | 86 | 1019.4 |
| 20260830045813 | 68 | 207 | 0.0 | 0.0 | 0.00 | 0.00 | 0.00 | 86 | 1019.4 |
| 20260830045307 | 68 | 207 | 0.0 | 0.0 | 0.00 | 0.00 | 0.00 | 85 | 1019.4 |
| 20260830045026 | 68 | 207 | 0.0 | 0.0 | 0.00 | 0.00 | 0.00 | 85 | 1019.3 |
| 20260830044305 | 69 | 207 | 0.0 | 0.0 | 0.00 | 0.00 | 0.00 | 85 | 1019.2 |
| 20260830043816 | 68 | 207 | 0.0 | 0.0 | 0.00 | 0.00 | 0.00 | 85 | 1019.2 |
| 20260830043535 | 68 | 207 | 0.0 | 0.0 | 0.00 | 0.00 | 0.00 | 85 | 1019.2 |
| 20260830042800 | 68 | 207 | 0.0 | 0.0 | 0.00 | 0.00 | 0.00 | 85 | 1019.1 |
| 20260830042300 | 69 | 207 | 0.0 | 0.0 | 0.00 | 0.00 | 0.00 | 84 | 1019.2 |
| 20260830041800 | 69 | 207 | 0.0 | 0.0 | 0.00 | 0.00 | 0.00 | 84 | 1019.1 |
| 20260830041259 | 69 | 207 | 0.0 | 0.0 | 0.00 | 0.00 | 0.00 | 84 | 1019.1 |
| 20260830040757 | 69 | 207 | 0.0 | 0.0 | 0.00 | 0.00 | 0.00 | 83 | 1019.1 |
| 20260830040302 | 69 | 207 | 0.0 | 0.0 | 0.00 | 0.00 | 0.00 | 83 | 1019.1 |
| 20260830035757 | 69 | 207 | 0.0 | 0.0 | 0.00 | 0.00 | 0.00 | 83 | 1019.1 |
| 20260830035258 | 69 | 207 | 0.0 | 0.0 | 0.00 | 0.00 | 0.00 | 84 | 1019.1 |
| 20260830034756 | 69 | 207 | 0.0 | 0.0 | 0.00 | 0.00 | 0.00 | 83 | 1019.0 |
| 20260830034517 | 69 | 207 | 0.0 | 0.0 | 0.00 | 0.00 | 0.00 | 83 | 1019.1 |
| 20260830033759 | 69 | 207 | 0.0 | 0.0 | 0.00 | 0.00 | 0.00 | 83 | 1019.0 |
| 20260830033256 | 70 | 207 | 0.0 | 0.0 | 0.00 | 0.00 | 0.00 | 83 | 1019.1 |
| 20260830033012 | 70 | 207 | 0.0 | 0.0 | 0.00 | 0.00 | 0.00 | 82 | 1019.0 |
| 20260830032254 | 70 | 207 | 0.0 | 0.0 | 0.00 | 0.00 | 0.00 | 82 | 1018.8 |
| 20260830031746 | 70 | 207 | 0.0 | 0.0 | 0.00 | 0.00 | 0.00 | 82 | 1018.8 |
| 20260830031244 | 71 | 207 | 0.0 | 0.0 | 0.00 | 0.00 | 0.00 | 81 | 1018.8 |
| 20260830030749 | 71 | 207 | 0.0 | 0.0 | 0.00 | 0.00 | 0.00 | 80 | 1018.8 |
| 20260830030239 | 71 | 207 | 0.0 | 0.0 | 0.00 | 0.00 | 0.00 | 79 | 1018.8 |
| 20260830025737 | 71 | 207 | 0.0 | 0.0 | 0.00 | 0.00 | 0.00 | 79 | 1018.7 |
| 20260830025243 | 71 | 207 | 0.0 | 0.0 | 0.00 | 0.00 | 0.00 | 79 | 1018.6 |
| 20260830024736 | 72 | 207 | 0.0 | 1.0 | 0.00 | 0.00 | 0.00 | 80 | 1018.6 |
| 20260830024236 | 72 | 207 | 0.0 | 1.0 | 0.00 | 0.00 | 0.00 | 80 | 1018.6 |
| 20260830023737 | 72 | 207 | 0.0 | 0.0 | 0.00 | 0.00 | 0.00 | 80 | 1018.7 |
| 20260830023235 | 72 | 207 | 0.0 | 0.0 | 0.00 | 0.00 | 0.00 | 79 | 1018.7 |
| 20260830023003 | 72 | 207 | 0.0 | 0.0 | 0.00 | 0.00 | 0.00 | 79 | 1018.7 |
| 20260830022235 | 72 | 207 | 0.0 | 0.0 | 0.00 | 0.00 | 0.00 | 79 | 1018.7 |
| 20260830021735 | 73 | 207 | 0.0 | 0.0 | 0.00 | 0.00 | 0.00 | 79 | 1018.7 |
| 20260830021233 | 73 | 207 | 0.0 | 0.0 | 0.00 | 0.00 | 0.00 | 79 | 1018.7 |